IRIDIUM 33 DEB, 37565

Orbit data source: Space-Track

IRIDIUM 33 DEB, 37565 is space debris in LEO originally from a launch on Sun, 14 Sep 1997 UTC launched from the Tyuratam Missile And Space Complex (TTMTR). The debris from Iridium 33, an American commercial communications satellite, has been tracked extensively since its accidental collision with the defunct Russian satellite Cosmos 2251 in 2009. This event, occurring at high speed in low Earth orbit (LEO), generated thousands of pieces of space debris, significantly increasing the risk of further collisions. The Iridium 33 debris cloud has impacted space traffic management and orbital debris mitigation strategies, making it a subject of ongoing study in space situational awareness.

Loading next visibility...
Identifier
37565, 1997-051YA
Orbit
LEO
Country
Flag of USUS
Related business
Manufacturer
Unknown
Mission
Spacecraft
Bus & Motor
Unknown
Mass
Unknown
Launch date (UTC)
1997-09-14 (28 years ago)
Launch vehicle
Unknown
Launch site
Tyuratam Missile And Space Complex (TTMTR)
Object type
Payload
Rocket body
Debris
Shape & HBR
Unknown shape, 0.1 m
Radar Cross Section
Small (<0.1 m²)

Expand to show TLE details & history
Last TLE update: 9 hours ago

TLE from 9 hours ago
0 IRIDIUM 33 DEB
1 37565U 97051YA  25349.78658828  .00001522  00000-0  37506-3 0  9997
2 37565  86.3497   8.2513 0015177  75.3949 284.8938 14.51530597658812
Epoch: 2025-12-15T18:52Z
TLE epoch observation values (Epoch: 2025-12-15T18:52:41.227Z)
Latitude
-0.00003°
Longitude
0.39937°
Altitude
720.974 km
Speed
7.496 km/s
True Right ascension
00h 33m 00s
True Declination
0° 00' 00"
Sunlit
Object was in daylight at epoch
Visualization orbit readout
Latitude
Unknown
Longitude
Unknown
Altitude
Unknown
Speed
Unknown
Apparent Right ascension
Unknown
Apparent Declination
Unknown
Sunlit
N/A
Visualization observer readout
Local Sidereal Time
02:49:39
Azimuth
Unknown
Elevation
Unknown
Doppler factor
Unknown
Orbital elements
Apogee altitude
728.364 km
Perigee altitude
706.826 km
Semi-major axis
7,095.732 km
Eccentricity
0.00152
Inclination
86.3497°
RAAN
8.2513°
Arg. of periapsis
75.3949°
True anomaly
284.72565°
Mean anomaly
284.8938°
Eccentric anomaly
284.80973°
Mean motion
3.63118 °/min
Orbital period
99.14 mins
BSTAR
0.00037506

Documentation

Showing up to 5 results
|